{"data":{"norad_id":65851,"epoch":"2026-05-24T22:27:35.077824Z","epoch_age_seconds":80547,"freshness":"FRESH","line1":"1 65851U 25222A   26144.93582266  .00001630  00000+0  16139-3 0  9998","line2":"2 65851  34.9895  41.3314 0003146 270.7821  89.2523 14.91750099 35565","mean_motion":14.91750099,"eccentricity":0.0003146,"inclination_deg":34.9895,"raan_deg":41.3314,"arg_perigee_deg":270.7821,"mean_anomaly_deg":89.2523,"bstar":0.00016139,"rev_number":3556,"period_min":96.530913654057,"perigee_km":590.28549254035,"apogee_km":594.67140378034,"semimajor_km":6970.6154481603,"source":"CELESTRAK","updated_at":"2026-05-25T13:38:05.760397Z"}}